Zurück zum Katalog

STARLINK-33676

AktivKommunikationVLEO
NORAD 63403·PAYLOAD·🇺🇸 United States

Gestartet Mar 31, 2025 von Cape Canaveral Space Force Station

Loading…

Nächste Überflüge (nächste 24 Stunden)

TLE

AktuellSource: CelesTrak SupGP

Epoche: Sep 15, 2026, 02:19 UTC

1 63403C 25065E   26258.09701389  .00063144  00000+0  22866-2 0  2585
2 63403  43.0019 117.2657 0001495 272.9574 281.1587 15.27554113    16

Verfolge STARLINK-33676 in Echtzeit mit AllMySat

Download on the App Store